Location: Unspecified
(0.0000°N, 0.0000°E)
Time: 12:26:45
(UTC+00:00)

deb Intelsat II F2 - Visible Passes

Search period start: 12 April 2026 00:00
Search period end: 22 April 2026 00:00
Orbit: 567 x 29646 km, 26.8° (Epoch: 12 April)

Date Brightness Start Highest point End Pass type
(mag) Time Alt. Az. Time Alt. Az. Time Alt. Az.
12 Apr ? 17:19:01 10° WSW 18:38:55 20° WSW 00:15:31 18° NW visible
14 Apr ? 11:49:40 10° SW 16:25:20 84° SW 19:44:06 10° NE visible
15 Apr ? 04:51:40 29° WNW 04:53:23 70° SSW 05:00:25 10° ESE visible
15 Apr ? 14:12:40 10° WSW 16:29:40 55° WSW 21:55:00 24° NNE visible
16 Apr ? 17:01:49 10° WSW 18:23:05 20° WSW 00:02:15 19° NNW visible
18 Apr ? 11:35:11 10° SW 16:06:06 86° SW 19:29:33 10° NE visible
19 Apr ? 04:38:07 47° W 04:38:59 62° SSW 04:45:39 10° SE visible
19 Apr ? 13:57:42 10° WSW 16:12:50 56° WSW 21:41:39 21° NNE visible
20 Apr ? 16:44:53 10° WSW 18:07:18 21° WSW 23:48:53 21° NNW visible
